CST,Max TemperatureF,Mean TemperatureF,Min TemperatureF,Max Dew PointF,MeanDew PointF,Min DewpointF,Max Humidity, Mean Humidity, Min Humidity, Max Sea Level PressureIn, Mean Sea Level PressureIn, Min Sea Level PressureIn, Max VisibilityMiles, Mean VisibilityMiles, Min VisibilityMiles, Max Wind SpeedMPH, Mean Wind SpeedMPH, Max Gust SpeedMPH,PrecipitationIn, CloudCover, Events, WindDirDegrees
2014-1-1,71,50,30,43,32,21,78,60,31,30.24,30.03,29.84,10,10,10,23,13,30,0.00,0,,195
2014-1-2,41,31,21,19,17,14,78,61,38,30.52,30.44,30.28,10,10,10,21,12,30,0.00,0,,337
2014-1-3,51,34,17,23,20,15,92,56,28,30.46,30.26,30.01,10,10,10,21,8,30,0.00,0,,169
2014-1-4,68,54,39,46,38,23,93,67,43,29.99,29.84,29.72,10,10,10,26,15,36,0.00,2,,183
2014-1-5,37,28,17,28,17,3,76,60,42,30.60,30.20,29.83,10,10,10,25,19,36,0.00,3,,335
2014-1-6,30,20,10,7,3,1,68,50,29,30.78,30.67,30.58,10,10,10,15,8,22,0.00,0,,318
2014-1-7,46,31,16,14,11,9,77,47,22,30.57,30.43,30.26,10,10,10,22,10,24,0.00,0,,186
2014-1-8,46,40,33,46,38,15,100,90,39,30.25,30.17,30.10,10,4,1,17,12,24,0.01,8,Rain,140
2014-1-9,46,42,37,46,40,37,100,99,93,30.21,30.13,30.00,4,2,0,9,6,,0.03,8,Fog-Rain,67
2014-1-10,66,54,42,61,51,36,100,90,55,29.97,29.81,29.65,10,5,0,21,7,25,0.16,5,Fog-Rain,196
2014-1-11,66,51,36,36,29,23,83,53,19,30.10,30.02,29.85,10,10,10,15,7,,0.00,0,,283
2014-1-12,73,56,39,52,36,24,78,49,21,30.01,29.87,29.75,10,10,10,31,13,44,0.00,0,,179
2014-1-13,61,49,34,53,29,17,87,46,19,30.07,29.98,29.76,10,10,10,18,12,32,0.00,0,,303
2014-1-14,63,46,28,32,24,18,72,47,21,30.36,30.13,30.00,10,10,10,24,5,32,0.00,0,,340
2014-1-15,55,42,28,26,22,17,72,49,27,30.41,30.26,30.07,10,10,10,10,8,18,0.00,0,,258
2014-1-16,64,50,35,31,24,11,70,42,19,30.20,30.09,30.00,10,10,10,18,8,22,0.00,1,,296
2014-1-17,53,44,35,20,13,6,54,30,17,30.38,30.27,30.18,10,10,10,16,9,24,0.00,1,,320
2014-1-18,66,50,33,28,24,19,61,41,22,30.19,30.12,30.02,10,10,10,18,7,25,0.00,0,,256
2014-1-19,64,46,28,28,25,21,78,49,19,30.30,30.18,30.03,10,10,10,14,7,,0.00,0,,210
2014-1-20,70,54,39,36,29,24,65,41,22,30.24,29.97,29.85,10,10,10,18,9,18,0.00,0,,255
2014-1-21,48,40,32,24,16,9,54,39,22,30.46,30.32,30.17,10,10,10,20,10,23,0.00,0,,360
2014-1-22,54,40,27,27,22,17,72,47,33,30.19,30.11,30.04,10,10,10,17,6,,0.00,0,,60
2014-1-23,42,32,19,21,6,-5,56,37,26,30.80,30.55,30.20,10,10,10,24,20,33,0.00,6,,19
2014-1-24,42,27,12,10,3,-2,64,39,18,30.79,30.56,30.23,10,10,10,16,8,,0.00,0,,247
2014-1-25,68,47,26,32,24,11,66,43,25,30.21,30.08,29.96,10,10,10,10,5,,0.00,0,,188
2014-1-26,73,56,39,34,32,28,70,45,20,29.94,29.77,29.62,10,10,10,14,4,,0.00,0,,140
2014-1-27,50,36,23,30,4,-6,51,30,17,30.38,30.21,29.81,10,10,10,33,20,46,0.00,0,,15
2014-1-28,34,26,14,12,4,-3,74,43,32,30.54,30.45,30.38,10,10,10,17,12,23,0.00,3,,10
2014-1-29,45,27,9,14,9,5,84,48,22,30.46,30.34,30.17,10,10,10,17,6,,0.00,0,,179
2014-1-30,61,46,30,44,29,13,80,56,42,30.15,29.92,29.79,10,10,10,29,19,38,0.00,1,,173
2014-1-31,73,62,50,57,50,46,93,73,42,29.85,29.77,29.73,10,10,9,21,13,26,0.00,1,,172